TimeMDT,TemperatureF,Dew PointF,Humidity,Sea Level PressureIn,VisibilityMPH,Wind Direction,Wind SpeedMPH,Gust SpeedMPH,PrecipitationIn,Events,Conditions,WindDirDegrees,DateUTC
12:51 AM,25.0,19.9,81,30.17,-9999.0,SSE,3.5,-,N/A,,Unknown,160,2013-10-24 06:51:00
1:51 AM,24.1,19.9,84,30.14,-9999.0,South,3.5,-,N/A,,Unknown,180,2013-10-24 07:51:00
2:51 AM,24.1,19.0,81,30.15,-9999.0,Calm,Calm,-,N/A,,Unknown,0,2013-10-24 08:51:00
3:51 AM,21.0,18.0,88,30.14,-9999.0,Calm,Calm,-,N/A,,Unknown,0,2013-10-24 09:51:00
4:51 AM,21.9,18.0,85,30.15,-9999.0,Calm,Calm,-,N/A,,Unknown,0,2013-10-24 10:51:00
5:51 AM,19.0,17.1,92,30.19,-9999.0,Calm,Calm,-,N/A,,Unknown,0,2013-10-24 11:51:00
6:51 AM,19.9,18.0,92,30.24,-9999.0,Calm,Calm,-,N/A,,Unknown,0,2013-10-24 12:51:00
7:51 AM,18.0,16.0,92,30.28,-9999.0,Calm,Calm,-,N/A,,Unknown,0,2013-10-24 13:51:00
8:51 AM,19.9,18.0,92,30.30,-9999.0,Calm,Calm,-,N/A,,Unknown,0,2013-10-24 14:51:00
9:51 AM,28.0,21.9,78,30.28,-9999.0,Calm,Calm,-,N/A,,Unknown,0,2013-10-24 15:51:00
10:51 AM,35.1,25.0,67,30.25,-9999.0,Variable,3.5,-,N/A,,Unknown,0,2013-10-24 16:51:00
11:51 AM,42.1,26.1,53,30.22,-9999.0,NNW,3.5,-,N/A,,Unknown,340,2013-10-24 17:51:00
12:51 PM,50.0,27.0,41,30.17,-9999.0,North,5.8,-,N/A,,Unknown,10,2013-10-24 18:51:00
1:51 PM,55.9,26.1,32,30.12,-9999.0,Variable,4.6,-,N/A,,Unknown,0,2013-10-24 19:51:00
2:51 PM,60.1,21.0,22,30.07,-9999.0,NNW,5.8,-,N/A,,Unknown,340,2013-10-24 20:51:00
3:51 PM,63.0,18.0,18,30.06,-9999.0,Variable,4.6,-,N/A,,Unknown,0,2013-10-24 21:51:00
4:51 PM,63.0,19.9,19,30.04,-9999.0,North,5.8,-,N/A,,Unknown,350,2013-10-24 22:51:00
5:51 PM,55.0,21.9,28,30.09,-9999.0,Calm,Calm,-,N/A,,Unknown,0,2013-10-24 23:51:00
6:51 PM,44.1,21.9,42,30.15,-9999.0,South,3.5,-,N/A,,Unknown,180,2013-10-25 00:51:00
7:51 PM,37.0,21.9,54,30.20,-9999.0,SSE,5.8,-,N/A,,Unknown,160,2013-10-25 01:51:00
8:51 PM,34.0,21.9,61,30.23,-9999.0,South,4.6,-,N/A,,Unknown,170,2013-10-25 02:51:00
9:51 PM,30.9,21.0,67,30.22,-9999.0,Calm,Calm,-,N/A,,Unknown,0,2013-10-25 03:51:00
10:51 PM,28.9,19.9,69,30.22,-9999.0,Calm,Calm,-,N/A,,Unknown,0,2013-10-25 04:51:00
11:51 PM,26.1,19.9,78,30.22,-9999.0,SSE,3.5,-,N/A,,Unknown,160,2013-10-25 05:51:00